Regional Weather Roundup
Issued by NWS

Home | Current Version | Previous Version | Text Only | Print | Product List | Glossary Off
Versions: 1 2 3 4 5 6 7 8 9 10 11 12 13 14 15 16 17 18 19 20 21 22 23 24 25 26 27 28 29 30 31 32 33 34 35 36 37 38 39 40 41 42 43 44 45 46 47 48 49 50

000
ASUS45 KCYS 272110
RWRWY

WYOMING REGIONAL WEATHER ROUNDUP
NATIONAL WEATHER SERVICE CHEYENNE WY
200 PM MST FRI FEB 27 2015

NOTE:  "FAIR" INDICATES FEW OR NO CLOUDS BELOW 12,000 FEET
WITH NO SIGNIFICANT WEATHER AND/OR OBSTRUCTIONS TO VISIBILITY.

WYZ001-272200-
YELLOWSTONE NATIONAL PARK

CITY           SKY/WX    TMP DP  RH WIND       PRES   REMARKS
LK YELLOWSTONE   N/A     17   8  67 CALM      29.70F
W YELLOWSTONE  NOT AVBL

$$
WYZ002>013-054>058-071-098>099-272200-
NORTHERN WYOMING

CITY           SKY/WX    TMP DP  RH WIND       PRES   REMARKS
JACKSON        CLOUDY    19  12  73 CALM      29.73F
CODY           FAIR      19  10  68 CALM      29.82F
GREYBULL       FAIR      27   6  41 CALM      29.87F
WORLAND        FAIR      24   9  52 CALM      29.86F
SHERIDAN       FAIR      18   6  59 W5        29.89F WCI  11
BUFFALO        FAIR      19   5  54 S10       29.82F WCI   7
GILLETTE       FAIR      22  10  60 S17       29.87F WCI   8
HULETT         FAIR      23   9  54 SW13G20   29.92F WCI  11
NEWCASTLE      MOCLDY    21   7  53 SE20G25   29.96F WCI   6

$$
WYZ014>020-022>026-101>103-272200-
CENTRAL WYOMING

CITY           SKY/WX    TMP DP  RH WIND       PRES   REMARKS
BIG PINEY      PTSUNNY   22   9  57 E3        29.74F
PINEDALE       CLOUDY    18  10  73 N6        29.75F WCI   9
DUBOIS         MOCLDY    14   9  79 SE12      29.67F WCI   0
LANDER         FAIR      12   6  77 CALM      29.80F
RIVERTON       FAIR      14   5  67 NE7       29.82F WCI   4
CASPER         FAIR      25   9  50 SW14      29.81F WCI  13
DOUGLAS        FAIR      22  10  60 SE15      29.86F WCI   9

$$
WYZ021-027>030-104>119-272200-
SOUTHERN WYOMING

CITY           SKY/WX    TMP DP  RH WIND       PRES   REMARKS
EVANSTON       CLOUDY    29  20  69 S12       29.71F WCI  19
KEMMERER       CLOUDY    27  18  69 SW3       29.72F
FORT BRIDGER   CLOUDY    26  19  73 E7        29.76F WCI  19
ROCK SPRINGS   FAIR      26  11  52 SW6       29.74F WCI  19
DIXON          FAIR      32  12  44 SW8       29.79F WCI  24
RAWLINS        FAIR      28   7  41 SW14G20   29.74F WCI  17
SARATOGA       MOCLDY    28  14  54 W3        29.75F
LARAMIE        FAIR      22   7  52 CALM      29.73F
CHEYENNE       LGT SNOW  12   5  73 S17       29.85F WCI  -5
TORRINGTON     FAIR      26   7  44 S23G31    29.96F WCI  11
PINE BLUFFS    LGT SNOW  18   9  68 S16G23    29.95S WCI   3

$$



USA.gov is the U.S. government's official web portal to all federal, state and local government web resources and services.